Weather History for KGRD - September, 2014

Change the Weather History Date:

Tuesday, September 23, 2014

  Actual Average (KAND) Record (KAND)
Temperature  
Mean Temperature 63 °F -  
Max Temperature 72 °F 80 °F 94 °F (1980)
Min Temperature 55 °F 59 °F 41 °F (1982)
Degree Days  
Heating Degree Days 2    
Growing Degree Days 13 (Base 50)    
Moisture  
Dew Point 55 °F    
Average Humidity 75    
Maximum Humidity 87    
Minimum Humidity 61    
Precipitation  
Precipitation 0.00 in - - ()
Sea Level Pressure  
Sea Level Pressure 30.23 in    
Wind  
Wind Speed 7 mph (NNE)    
Max Wind Speed 14 mph    
Max Gust Speed 22 mph    
Visibility 10 miles    
Events      
Averages and records for this station are not official NWS values.
T = Trace of Precipitation, MM = Missing Value Source: NWS Daily Summary

Daily Weather History Graph

Daily Weather History Graph

Search for Another Location

Airport or City:

Trip Planner

Search our weather history database for the weather conditions in past years. The results will help you decide how hot, cold, wet, or windy it might be!

Date:

Astronomy

Sep. 23, 2014 Rise Set
Actual Time 7:17 AM EDT 7:23 PM EDT
Civil Twilight 6:52 AM EDT 7:48 PM EDT
Nautical Twilight 6:23 AM EDT 8:18 PM EDT
Astronomical Twilight 5:53 AM EDT 8:47 PM EDT
Moon 6:41 AM EDT (9/23) 7:02 PM EDT (9/23)
Length of Visible Light 12h 56m
Length of Day
12h 06m
Waning Crescent, 0% of the Moon is Illuminated
Sep 23
Waning Crescent
Sep 24
New
Oct 1
First Quarter
Oct 8
Full
Oct 15
Last Quarter

Hourly Weather History & Observations

Time (EDT) Temp. Dew Point Humidity Pressure Visibility Wind Dir Wind Speed Gust Speed Precip Events Conditions
12:56 AM 63.0 °F 59.0 °F 87% 30.14 in 10.0 mi North 4.6 mph - N/A   Partly Cloudy
1:56 AM 63.0 °F 57.9 °F 84% 30.14 in 10.0 mi NNW 4.6 mph - N/A   Mostly Cloudy
2:56 AM 63.0 °F 57.9 °F 84% 30.13 in 10.0 mi NNE 4.6 mph - N/A   Mostly Cloudy
3:56 AM 63.0 °F 57.0 °F 81% 30.13 in 10.0 mi NNE 5.8 mph - N/A   Scattered Clouds
4:56 AM 62.1 °F 55.9 °F 80% 30.13 in 10.0 mi North 6.9 mph - N/A   Clear
6:56 AM 59.0 °F 53.1 °F 81% 30.19 in 10.0 mi NE 3.5 mph - N/A   Clear
7:56 AM 61.0 °F 53.1 °F 75% 30.20 in 10.0 mi NNE 6.9 mph - N/A   Overcast
8:56 AM 61.0 °F 54.0 °F 78% 30.22 in 10.0 mi North 6.9 mph - 0.00 in   Overcast
9:56 AM 63.0 °F 54.0 °F 72% 30.24 in 10.0 mi NE 6.9 mph - N/A   Overcast
10:56 AM 69.1 °F 55.0 °F 61% 30.25 in 10.0 mi NE 9.2 mph 21.9 mph N/A   Clear
11:56 AM 68.0 °F 55.0 °F 63% 30.25 in 10.0 mi NNE 11.5 mph - N/A   Mostly Cloudy
12:56 PM 66.9 °F 55.9 °F 68% 30.25 in 10.0 mi NE 12.7 mph 21.9 mph N/A   Overcast
1:56 PM 68.0 °F 55.9 °F 65% 30.26 in 10.0 mi NE 12.7 mph 21.9 mph N/A   Overcast
2:56 PM 68.0 °F 55.9 °F 65% 30.26 in 10.0 mi NNE 11.5 mph 18.4 mph N/A   Overcast
3:56 PM 66.0 °F 55.9 °F 70% 30.26 in 10.0 mi NNE 8.1 mph - N/A   Overcast
4:56 PM 66.9 °F 55.0 °F 66% 30.25 in 10.0 mi North 13.8 mph - N/A   Overcast
5:26 PM 66.0 °F 55.0 °F 68% 30.26 in 10.0 mi NNE 11.5 mph - N/A   Scattered Clouds
5:56 PM 66.0 °F 55.0 °F 68% 30.25 in 10.0 mi NE 12.7 mph - N/A   Partly Cloudy
6:30 PM 64.0 °F 55.0 °F 73% 30.26 in 10.0 mi NNE 12.7 mph - N/A   Mostly Cloudy
6:56 PM 63.0 °F 54.0 °F 72% 30.26 in 10.0 mi NNE 13.8 mph - N/A   Overcast
7:56 PM 61.0 °F 53.1 °F 75% 30.27 in 10.0 mi North 10.4 mph - N/A   Overcast
8:56 PM 59.0 °F 53.1 °F 81% 30.27 in 10.0 mi NNE 8.1 mph - N/A   Scattered Clouds
9:56 PM 57.9 °F 52.0 °F 81% 30.29 in 10.0 mi NNE 5.8 mph - N/A   Clear
10:56 PM 57.0 °F 52.0 °F 83% 30.29 in 10.0 mi NE 5.8 mph - N/A   Clear
11:56 PM 55.9 °F 51.1 °F 84% 30.30 in 10.0 mi North 8.1 mph - N/A   Clear